User: anonymous   Login
Location: Valdosta
(30.8330°N, 83.2790°W)
Time: 20:11:51
(UTC-04:00)
Language:

Oscar 19 - Orbit

View from above orbital plane
View from above orbital plane
View from above satellite
View from above satellite

Ground track
Ground track

The orbit data is extracted from the following two-line orbital elements,

1 20442U 90005G   15147.39230864  .00000056  00000-0  36474-4 0  9998
2 20442 098.5106 083.5136 0011167 204.9515 155.1130 14.32735270323964
Epoch (UTC): 27 May 2015 09:24:55
Eccentricity: 0.0011167
inclination: 98.5106°
perigee height: 774 km
apogee height: 790 km
right ascension of ascending node: 83.5136°
argument of perigee: 204.9515°
revolutions per day: 14.32735270
mean anomaly at epoch: 155.1130°
orbit number at epoch: 32396

The dashed part of the orbit path shows where the satellite is in the earth's shadow,  

DLR